Weather observations for the past three days for
Scottsdale Airport
Metric (Imperial)
Date Time (mst) Wind (kph) Vis. (km) Weather Sky Cond. Temperature (ºC) Relative Humidity Wind Chill (°C) Heat Index (°C) Pressure Precipitation (cm)
Air Dwpt 6 hour altimeter (cm) sea level (mb) 1 hr 3 hr 6 hr
Max. Min.
21 10:53 SE 20 G 37 16.09 Fair CLR 39.4 16.1 25% 40 75.54 1003.8
21 09:53 Calm 0.00 Fair CLR 0 0 0% 75.51 0.0
21 08:53 E 19 16.09 Fair CLR 37.2 17.2 31% 38 75.51 1003.5
21 07:53 E 15 G 30 16.09 Fair CLR 35.6 16.7 32% 36 75.49 1003.2
21 06:53 E 17 G 35 16.09 Fair CLR 33.9 16.7 36% 34 75.46 1002.9
21 05:53 E 17 G 30 16.09 Fair CLR 33.3 16.7 37% 34 75.44 1002.2
21 04:53 E 20 G 35 16.09 Fair CLR 33.3 16.7 35 33.3 37% 34 75.39 1001.7
21 03:53 E 19 G 35 16.09 Fair CLR 33.9 17.2 37% 35 75.34 1001.1
21 02:53 E 22 G 37 16.09 Fair CLR 33.9 17.2 37% 35 75.34 1001.0
21 01:53 E 20 G 35 16.09 Fair CLR 34.4 16.7 35% 35 75.36 1001.2
21 00:53 E 19 G 43 16.09 Fair CLR 34.4 16.7 35% 35 75.41 1001.9
20 23:53 E 22 16.09 Fair CLR 35 15.6 31% 35 75.41 1002.1
20 22:53 E 22 G 41 16.09 Fair CLR 35 15.6 43.3 35 31% 35 75.41 1002.2
20 21:53 E 24 G 48 16.09 Fair CLR 35.6 15.6 30% 36 75.41 1002.0
20 20:53 E 30 G 44 16.09 Fair CLR 36.1 15 28% 36 75.36 1001.4
20 19:53 E 17 16.09 Fair CLR 37.8 13.9 24% 37 75.31 1000.8
20 18:53 S 15 16.09 Fair CLR 40 15.6 24% 41 75.26 1000.2
20 17:53 SW 13 G 26 16.09 Fair CLR 42.2 7.8 12% 40 75.18 999.1
20 16:53 SW 11 G 33 16.09 Fair CLR 43.3 7.2 43.9 38.3 11% 41 75.16 998.7
20 15:53 SW 19 G 28 16.09 Fair CLR 43.3 10.6 14% 42 75.16 998.7
20 14:53 S 13 16.09 Fair CLR 42.8 12.2 16% 42 75.23 1000.0
20 13:53 S 17 G 37 16.09 Fair CLR 42.2 14.4 19% 42 75.34 1001.2
20 12:53 Vrbl 9 16.09 Fair CLR 41.1 15 21% 42 75.41 1002.1
20 11:53 SE 11 16.09 Fair CLR 40 14.4 22% 40 75.49 1003.2
20 10:53 Calm 16.09 Fair CLR 38.3 12.8 38.3 26.7 22% 37 75.54 1003.8
20 09:53 Vrbl 6 16.09 Fair CLR 36.1 11.7 23% 35 75.57 1004.2
20 08:53 Calm 16.09 Fair CLR 33.3 8.3 21% 31 75.57 1004.4
20 07:53 Calm 16.09 Fair CLR 31.1 8.3 24% 29 75.57 1004.4
20 06:53 Calm 16.09 Fair CLR 27.8 10.6 34% 27 75.54 1004.0
20 05:53 Calm 16.09 Fair CLR 27.2 7.8 29% 27 75.51 1003.6
20 04:53 Calm 16.09 Fair CLR 27.2 6.7 32.8 26.1 27% 26 75.49 1003.3
20 03:53 Calm 16.09 Fair CLR 26.1 7.8 31% 26 75.49 1003.4
20 02:53 Calm 16.09 Fair CLR 26.7 7.2 29% 26 75.49 1003.4
20 01:53 Calm 16.09 Fair CLR 27.8 7.2 27% 27 75.44 1002.9
20 00:53 Calm 16.09 Fair CLR 30 6.7 23% 28 75.46 1003.2
19 23:53 NW 6 16.09 Fair CLR 30 6.7 23% 28 75.49 1003.3
19 22:53 N 6 16.09 Fair CLR 32.2 5 38.3 32.2 18% 30 75.49 1003.5
19 21:53 NE 6 16.09 Fair CLR 33.3 5.6 18% 31 75.49 1003.3
19 20:53 Calm 16.09 Fair CLR 35 5 15% 33 75.44 1002.7
19 19:53 W 7 16.09 Fair CLR 36.1 5 14% 34 75.41 1002.4
19 18:53 W 11 16.09 Fair CLR 37.2 4.4 13% 35 75.41 1002.3
19 17:53 Calm 16.09 Fair CLR 37.8 5 13% 35 75.39 1002.2
19 16:53 SW 9 16.09 Fair CLR 38.3 3.9 38.9 34.4 12% 36 75.44 1002.7
19 15:53 SW 9 16.09 Fair CLR 38.3 3.9 12% 36 75.49 1003.2
19 14:53 SE 9 16.09 Fair CLR 37.2 4.4 13% 35 75.54 1003.9
19 13:53 SW 9 16.09 Fair CLR 36.1 5.6 15% 34 75.57 1004.5
19 12:53 Vrbl 9 16.09 Fair CLR 36.1 6.7 16% 34 75.64 1005.3
19 11:53 S 13 16.09 Fair CLR 35 6.7 17% 33 75.67 1005.8
19 10:53 SE 15 16.09 Fair CLR 34.4 4.4 35 27.2 15% 32 75.69 1006.0
19 09:53 SE 13 G 28 16.09 Fair CLR 33.3 7.2 20% 31 75.69 1006.0
19 08:53 SE 13 16.09 Fair CLR 31.7 8.3 23% 30 75.69 1006.2
19 07:53 S 7 16.09 Fair CLR 30 7.2 24% 28 75.69 1006.3
19 06:53 SE 6 16.09 Fair CLR 28.3 8.3 28% 27 75.67 1005.8
19 05:53 Vrbl 6 16.09 Fair CLR 27.2 7.2 28% 26 75.62 1005.1
19 04:53 Calm 16.09 Fair CLR 27.2 8.3 32.2 26.7 30% 27 75.57 1004.5
19 03:53 Calm 16.09 Fair CLR 28.3 9.4 31% 27 75.51 1003.7
19 02:53 Vrbl 6 16.09 Fair CLR 28.9 8.3 27% 28 75.46 1003.0
19 01:53 N 7 16.09 Fair CLR 30 8.3 26% 28 75.46 1002.9
19 00:53 Calm 16.09 Fair CLR 30.6 8.3 25% 29 75.46 1003.0
18 23:53 W 7 16.09 Fair CLR 31.7 6.7 21% 30 75.46 1003.0
18 22:53 Calm 16.09 Fair CLR 32.2 6.1 37.8 32.2 19% 30 75.44 1002.9
18 21:53 W 6 16.09 Fair CLR 33.3 6.1 18% 31 75.41 1002.5
18 20:53 W 6 16.09 Fair CLR 34.4 5.6 17% 32 75.36 1001.7
18 19:53 W 7 16.09 Fair CLR 35.6 5.6 15% 33 75.31 1001.1
18 18:53 W 11 16.09 Fair CLR 36.7 4.4 13% 34 75.29 1000.8
18 17:53 W 7 16.09 Fair CLR 37.8 3.3 12% 35 75.26 1000.4
18 16:53 Vrbl 11 16.09 Fair CLR 37.8 2.8 38.3 33.3 11% 35 75.29 1000.6
18 15:53 Vrbl 6 16.09 Fair CLR 37.2 3.3 12% 34 75.31 1001.1
18 14:53 SE 17 16.09 Fair CLR 37.2 3.9 13% 35 75.36 1001.9
18 13:53 S 11 16.09 Fair CLR 36.1 3.9 13% 34 75.41 1002.3
18 12:53 W 13 16.09 Fair CLR 35.6 3.3 13% 33 75.44 1002.7
18 11:53 Calm 16.09 Fair CLR 35 3.9 14% 33 75.46 1003.0
Date Time (mst) Wind (kph) Vis. (km) Weather Sky Cond. Air Dwpt Max. Min. Relative Humidity Wind Chill (°C) Heat Index (°C) altimeter (cm) sea level (mb) 1 hr 3 hr 6 hr
6 hour
Temperature (ºC) Pressure Precipitation (cm)